BAW29AV EGLL-EGPH

Flight info

Callsign BAW29AV
Flight time 0h 55m
Altitude 36000
Route ULTIB T420 TNT UN57 POL UN601 RIBEL DCT INPIP
Aircraft A320/M-SDE3FGHIRWY/LB1

Departure

Time 2026-05-07 17:36
Airport London Heathrow Airport (EGLL)

Arrival

Time 2026-05-07 18:32
Airport Edinburgh Airport (EGPH)
Time Latitude Longitude Altitude Speed Heading
2026-05-07 17:08 51.47271 -0.48588 87 ft 0 kts 270°
2026-05-07 17:24 51.47271 -0.48565 90 ft 3 kts 269°
2026-05-07 17:24 51.47271 -0.48532 90 ft 3 kts 269°
2026-05-07 17:24 51.47271 -0.48500 90 ft 3 kts 271°
2026-05-07 17:25 51.47271 -0.48479 90 ft 1 kts 195°
2026-05-07 17:25 51.47280 -0.48477 93 ft 1 kts 181°
2026-05-07 17:25 51.47288 -0.48476 92 ft 1 kts 179°
2026-05-07 17:25 51.47291 -0.48477 92 ft 0 kts 179°
2026-05-07 17:28 51.47290 -0.48477 92 ft 1 kts 179°
2026-05-07 17:28 51.47275 -0.48476 89 ft 3 kts 179°
2026-05-07 17:28 51.47241 -0.48476 89 ft 6 kts 179°
2026-05-07 17:29 51.47189 -0.48475 87 ft 9 kts 179°
2026-05-07 17:29 51.47124 -0.48475 87 ft 10 kts 179°
2026-05-07 17:29 51.47044 -0.48474 87 ft 13 kts 180°
2026-05-07 17:29 51.46947 -0.48474 87 ft 15 kts 179°
2026-05-07 17:30 51.46862 -0.48472 87 ft 11 kts 179°
2026-05-07 17:30 51.46774 -0.48472 90 ft 14 kts 180°
2026-05-07 17:30 51.46681 -0.48471 87 ft 10 kts 180°
2026-05-07 17:30 51.46607 -0.48471 87 ft 9 kts 180°
2026-05-07 17:31 51.46595 -0.48471 88 ft 0 kts 180°
2026-05-07 17:33 51.46592 -0.48471 88 ft 2 kts 180°
2026-05-07 17:33 51.46539 -0.48472 89 ft 11 kts 180°
2026-05-07 17:33 51.46480 -0.48448 90 ft 9 kts 117°
2026-05-07 17:33 51.46478 -0.48378 90 ft 0 kts 90°
2026-05-07 17:35 51.46478 -0.48350 89 ft 15 kts 90°
2026-05-07 17:35 51.46478 -0.47770 87 ft 86 kts 89°
2026-05-07 17:35 51.46482 -0.46503 88 ft 138 kts 90°
2026-05-07 17:36 51.46517 -0.44822 429 ft 150 kts 92°
2026-05-07 17:36 51.46537 -0.43154 1089 ft 152 kts 91°
2026-05-07 17:36 51.46673 -0.41388 1479 ft 173 kts 73°
2026-05-07 17:36 51.47303 -0.39630 1830 ft 193 kts 52°
2026-05-07 17:37 51.48206 -0.37874 2105 ft 217 kts 51°
2026-05-07 17:37 51.49238 -0.35920 2464 ft 242 kts 50°
2026-05-07 17:37 51.50375 -0.33773 3045 ft 259 kts 50°
2026-05-07 17:37 51.51548 -0.31543 3959 ft 263 kts 51°
2026-05-07 17:38 51.52507 -0.29030 4888 ft 267 kts 69°
2026-05-07 17:38 51.53162 -0.26212 5672 ft 273 kts 64°
2026-05-07 17:38 51.54312 -0.23809 5933 ft 273 kts 38°
2026-05-07 17:38 51.56000 -0.22488 6008 ft 272 kts 11°
2026-05-07 17:39 51.57863 -0.22598 6007 ft 270 kts 342°
2026-05-07 17:39 51.59657 -0.23523 6008 ft 271 kts 345°
2026-05-07 17:39 51.61491 -0.24237 6008 ft 271 kts 342°
2026-05-07 17:39 51.63227 -0.25403 6009 ft 270 kts 332°
2026-05-07 17:40 51.64884 -0.26831 6009 ft 270 kts 330°
2026-05-07 17:40 51.66513 -0.28337 6011 ft 270 kts 329°
2026-05-07 17:40 51.68133 -0.29886 6012 ft 270 kts 328°
2026-05-07 17:40 51.69742 -0.31447 6015 ft 270 kts 328°
2026-05-07 17:41 51.71350 -0.33011 6009 ft 271 kts 328°
2026-05-07 17:41 51.72967 -0.34582 6016 ft 271 kts 328°
2026-05-07 17:41 51.74604 -0.36168 6703 ft 275 kts 328°
2026-05-07 17:41 51.76251 -0.37765 7618 ft 277 kts 327°
2026-05-07 17:42 51.77916 -0.39379 8473 ft 282 kts 328°
2026-05-07 17:42 51.79592 -0.41001 9305 ft 286 kts 328°
2026-05-07 17:42 51.81316 -0.42672 10094 ft 291 kts 328°
2026-05-07 17:42 51.83090 -0.44396 10542 ft 308 kts 327°
2026-05-07 17:43 51.84996 -0.46252 10789 ft 330 kts 328°
2026-05-07 17:43 51.86995 -0.48196 11340 ft 339 kts 328°
2026-05-07 17:43 51.89026 -0.50173 12010 ft 344 kts 327°
2026-05-07 17:43 51.91088 -0.52180 12703 ft 348 kts 327°
2026-05-07 17:44 51.93182 -0.54216 13380 ft 352 kts 327°
2026-05-07 17:44 51.95296 -0.56272 14043 ft 357 kts 327°
2026-05-07 17:44 51.97433 -0.58353 14670 ft 360 kts 327°
2026-05-07 17:44 51.99593 -0.60464 15307 ft 362 kts 327°
2026-05-07 17:45 52.01750 -0.62582 15937 ft 364 kts 327°
2026-05-07 17:45 52.03934 -0.64728 16572 ft 367 kts 327°
2026-05-07 17:45 52.06097 -0.66852 17206 ft 369 kts 327°
2026-05-07 17:45 52.08299 -0.69018 17831 ft 371 kts 327°
2026-05-07 17:46 52.10524 -0.71209 18455 ft 374 kts 327°
2026-05-07 17:46 52.12757 -0.73402 19005 ft 377 kts 327°
2026-05-07 17:46 52.15008 -0.75614 19561 ft 379 kts 327°
2026-05-07 17:46 52.17277 -0.77846 20122 ft 382 kts 327°
2026-05-07 17:47 52.19558 -0.80098 20670 ft 384 kts 326°
2026-05-07 17:47 52.21852 -0.82370 21184 ft 387 kts 326°
2026-05-07 17:47 52.23381 -0.83887 21522 ft 389 kts 326°
2026-05-07 17:47 52.25698 -0.86182 22018 ft 391 kts 326°
2026-05-07 17:48 52.28034 -0.88500 22523 ft 394 kts 326°
2026-05-07 17:48 52.30383 -0.90838 23028 ft 397 kts 326°
2026-05-07 17:48 52.32750 -0.93194 23509 ft 399 kts 326°
2026-05-07 17:48 52.35130 -0.95569 23931 ft 402 kts 326°
2026-05-07 17:49 52.37528 -0.97966 24348 ft 404 kts 326°
2026-05-07 17:49 52.39935 -1.00375 24740 ft 407 kts 326°
2026-05-07 17:49 52.42358 -1.02800 25137 ft 409 kts 326°
2026-05-07 17:49 52.44800 -1.05246 25528 ft 412 kts 326°
2026-05-07 17:50 52.47220 -1.07673 25914 ft 414 kts 326°
2026-05-07 17:50 52.49690 -1.10148 26295 ft 417 kts 326°
2026-05-07 17:50 52.52176 -1.12645 26667 ft 420 kts 326°
2026-05-07 17:50 52.54675 -1.15160 27037 ft 422 kts 326°
2026-05-07 17:51 52.57197 -1.17700 27412 ft 425 kts 326°
2026-05-07 17:51 52.59729 -1.20250 27773 ft 428 kts 326°
2026-05-07 17:51 52.62274 -1.22818 28141 ft 430 kts 326°
2026-05-07 17:51 52.64830 -1.25407 28515 ft 433 kts 326°
2026-05-07 17:52 52.67408 -1.28023 28880 ft 436 kts 327°
2026-05-07 17:52 52.69991 -1.30651 29239 ft 439 kts 327°
2026-05-07 17:52 52.72599 -1.33309 29600 ft 442 kts 327°
2026-05-07 17:52 52.75188 -1.35952 29941 ft 445 kts 327°
2026-05-07 17:53 52.77826 -1.38648 30251 ft 447 kts 327°
2026-05-07 17:53 52.80481 -1.41361 30595 ft 448 kts 327°
2026-05-07 17:53 52.83129 -1.44066 31031 ft 448 kts 327°
2026-05-07 17:53 52.85787 -1.46782 31450 ft 447 kts 327°
2026-05-07 17:54 52.88432 -1.49492 31871 ft 447 kts 327°
2026-05-07 17:54 52.91079 -1.52207 32288 ft 447 kts 327°
2026-05-07 17:54 52.93725 -1.54925 32717 ft 446 kts 327°
2026-05-07 17:54 52.96359 -1.57637 33149 ft 446 kts 327°
2026-05-07 17:55 52.98988 -1.60352 33591 ft 445 kts 327°
2026-05-07 17:55 53.01617 -1.63075 34012 ft 445 kts 327°
2026-05-07 17:55 53.04251 -1.65785 34365 ft 445 kts 329°
2026-05-07 17:55 53.07007 -1.67999 34675 ft 447 kts 338°
2026-05-07 17:56 53.09959 -1.69821 34982 ft 448 kts 338°
2026-05-07 17:56 53.12850 -1.71600 35287 ft 448 kts 338°
2026-05-07 17:56 53.15683 -1.73351 35577 ft 448 kts 338°
2026-05-07 17:56 53.18605 -1.75164 35875 ft 448 kts 338°
2026-05-07 17:57 53.21531 -1.76985 36006 ft 450 kts 338°
2026-05-07 17:57 53.23518 -1.78223 36031 ft 452 kts 338°
2026-05-07 17:57 53.30372 -1.82509 36027 ft 453 kts 338°
2026-05-07 17:58 53.36291 -1.86224 36026 ft 454 kts 338°
2026-05-07 17:58 53.42209 -1.89935 36027 ft 454 kts 338°
2026-05-07 17:59 53.48142 -1.93662 36025 ft 455 kts 338°
2026-05-07 17:59 53.54070 -1.97404 36026 ft 455 kts 338°
2026-05-07 18:00 53.59964 -2.01140 36024 ft 456 kts 338°
2026-05-07 18:00 53.65903 -2.04916 36020 ft 457 kts 338°
2026-05-07 18:01 53.71859 -2.08714 36021 ft 457 kts 338°
2026-05-07 18:01 53.77808 -2.12566 36022 ft 458 kts 337°
2026-05-07 18:02 53.86672 -2.18673 36025 ft 459 kts 336°
2026-05-07 18:03 53.92584 -2.22765 36021 ft 459 kts 336°
2026-05-07 18:03 53.98517 -2.26843 35953 ft 460 kts 336°
2026-05-07 18:03 54.01496 -2.28890 35035 ft 461 kts 337°
2026-05-07 18:04 54.04458 -2.30927 33729 ft 469 kts 337°
2026-05-07 18:04 54.07468 -2.33002 32951 ft 460 kts 337°
2026-05-07 18:04 54.10367 -2.35002 32657 ft 442 kts 337°
2026-05-07 18:04 54.13170 -2.36939 32200 ft 428 kts 337°
2026-05-07 18:05 54.15895 -2.38829 31765 ft 416 kts 337°
2026-05-07 18:05 54.18545 -2.40672 31330 ft 406 kts 337°
2026-05-07 18:05 54.21149 -2.42481 30909 ft 405 kts 336°
2026-05-07 18:05 54.23764 -2.44301 30478 ft 405 kts 336°
2026-05-07 18:06 54.26372 -2.46122 30046 ft 405 kts 336°
2026-05-07 18:06 54.28977 -2.47950 29605 ft 404 kts 336°
2026-05-07 18:06 54.31573 -2.49774 29188 ft 402 kts 336°
2026-05-07 18:06 54.34151 -2.51584 28777 ft 399 kts 336°
2026-05-07 18:07 54.36681 -2.53353 28391 ft 397 kts 336°
2026-05-07 18:07 54.39225 -2.55134 28000 ft 394 kts 336°
2026-05-07 18:07 54.41756 -2.56910 27620 ft 391 kts 336°
2026-05-07 18:07 54.44262 -2.58675 27242 ft 388 kts 336°
2026-05-07 18:08 54.46750 -2.60430 26867 ft 385 kts 336°
2026-05-07 18:08 54.49219 -2.62173 26504 ft 382 kts 335°
2026-05-07 18:08 54.51668 -2.63901 26142 ft 379 kts 335°
2026-05-07 18:08 54.54100 -2.65621 25774 ft 376 kts 335°
2026-05-07 18:09 54.56513 -2.67332 25387 ft 374 kts 335°
2026-05-07 18:09 54.58907 -2.69036 25008 ft 371 kts 335°
2026-05-07 18:09 54.61288 -2.70733 24617 ft 370 kts 335°
2026-05-07 18:09 54.63659 -2.72422 24231 ft 368 kts 335°
2026-05-07 18:10 54.66024 -2.74106 23841 ft 366 kts 335°
2026-05-07 18:10 54.68380 -2.75785 23413 ft 366 kts 335°
2026-05-07 18:10 54.70728 -2.77459 22984 ft 364 kts 335°
2026-05-07 18:10 54.73056 -2.79120 22574 ft 361 kts 335°
2026-05-07 18:11 54.75371 -2.80772 22164 ft 359 kts 335°
2026-05-07 18:11 54.76896 -2.81858 21893 ft 357 kts 335°
2026-05-07 18:11 54.79955 -2.84047 21342 ft 354 kts 334°
2026-05-07 18:11 54.82247 -2.85590 21061 ft 351 kts 342°
2026-05-07 18:12 54.84615 -2.86402 20983 ft 344 kts 347°
2026-05-07 18:12 54.86962 -2.87130 20892 ft 342 kts 347°
2026-05-07 18:12 54.89302 -2.87860 20828 ft 341 kts 347°
2026-05-07 18:12 54.91694 -2.88615 20607 ft 358 kts 347°
2026-05-07 18:13 54.94171 -2.89397 20355 ft 365 kts 347°
2026-05-07 18:13 54.96674 -2.90176 20035 ft 364 kts 347°
2026-05-07 18:13 54.99166 -2.90943 19964 ft 364 kts 347°
2026-05-07 18:13 55.01665 -2.91713 19978 ft 365 kts 347°
2026-05-07 18:14 55.04172 -2.92487 19691 ft 368 kts 347°
2026-05-07 18:14 55.06730 -2.93280 19075 ft 373 kts 347°
2026-05-07 18:14 55.09247 -2.94059 18913 ft 362 kts 347°
2026-05-07 18:14 55.11717 -2.94827 18601 ft 358 kts 347°
2026-05-07 18:15 55.14157 -2.95588 18230 ft 355 kts 347°
2026-05-07 18:15 55.16584 -2.96349 17796 ft 353 kts 347°
2026-05-07 18:15 55.18995 -2.97105 17363 ft 351 kts 347°
2026-05-07 18:15 55.21392 -2.97855 17018 ft 348 kts 347°
2026-05-07 18:16 55.23768 -2.98599 16969 ft 348 kts 347°
2026-05-07 18:16 55.26158 -2.99353 16978 ft 350 kts 347°
2026-05-07 18:16 55.28554 -3.00106 16978 ft 350 kts 347°
2026-05-07 18:16 55.30954 -3.00861 16977 ft 350 kts 347°
2026-05-07 18:17 55.33356 -3.01621 16629 ft 350 kts 347°
2026-05-07 18:17 55.35757 -3.02384 15827 ft 349 kts 347°
2026-05-07 18:17 55.38116 -3.03129 15259 ft 340 kts 347°
2026-05-07 18:17 55.40425 -3.03858 14642 ft 335 kts 347°
2026-05-07 18:18 55.42709 -3.04577 14019 ft 331 kts 347°
2026-05-07 18:18 55.44941 -3.05260 13353 ft 328 kts 349°
2026-05-07 18:18 55.47254 -3.05232 12622 ft 328 kts
2026-05-07 18:18 55.49485 -3.04786 12000 ft 325 kts
2026-05-07 18:19 55.51688 -3.04302 11563 ft 315 kts
2026-05-07 18:19 55.53845 -3.03821 10992 ft 311 kts
2026-05-07 18:19 55.55980 -3.03348 10448 ft 307 kts
2026-05-07 18:19 55.58094 -3.02877 9906 ft 305 kts
2026-05-07 18:20 55.60187 -3.02409 9306 ft 302 kts
2026-05-07 18:20 55.62262 -3.01945 8680 ft 300 kts
2026-05-07 18:20 55.64327 -3.01483 8154 ft 297 kts
2026-05-07 18:20 55.66342 -3.01033 7945 ft 287 kts
2026-05-07 18:21 55.68321 -3.00583 7773 ft 286 kts
2026-05-07 18:21 55.70283 -3.00134 7248 ft 283 kts
2026-05-07 18:21 55.72233 -2.99683 6737 ft 282 kts
2026-05-07 18:21 55.74171 -2.99240 6217 ft 279 kts
2026-05-07 18:22 55.76093 -2.98805 5667 ft 278 kts
2026-05-07 18:22 55.77359 -2.98514 5335 ft 276 kts
2026-05-07 18:22 55.79905 -2.97927 4855 ft 275 kts
2026-05-07 18:22 55.81803 -2.97488 4550 ft 274 kts
2026-05-07 18:23 55.83694 -2.97055 4254 ft 273 kts
2026-05-07 18:23 55.85573 -2.96624 4034 ft 271 kts
2026-05-07 18:23 55.87452 -2.96208 4011 ft 273 kts
2026-05-07 18:23 55.89300 -2.95789 4011 ft 262 kts
2026-05-07 18:24 55.91058 -2.95371 4010 ft 248 kts
2026-05-07 18:24 55.92741 -2.94967 4012 ft 242 kts
2026-05-07 18:24 55.94408 -2.94558 4013 ft 241 kts
2026-05-07 18:24 55.96069 -2.94146 4012 ft 241 kts
2026-05-07 18:25 55.97725 -2.93735 4013 ft 241 kts
2026-05-07 18:25 55.99366 -2.93826 4010 ft 233 kts 339°
2026-05-07 18:25 56.00868 -2.94845 3908 ft 228 kts 331°
2026-05-07 18:25 56.02279 -2.96102 3587 ft 224 kts 318°
2026-05-07 18:26 56.03251 -2.98129 3304 ft 210 kts 286°
2026-05-07 18:26 56.03556 -3.00621 3048 ft 204 kts 271°
2026-05-07 18:26 56.03695 -3.03070 3007 ft 192 kts 270°
2026-05-07 18:26 56.03823 -3.05405 3032 ft 187 kts 270°
2026-05-07 18:27 56.03950 -3.07706 3018 ft 185 kts 270°
2026-05-07 18:27 56.03957 -3.09977 3009 ft 180 kts 255°
2026-05-07 18:27 56.03494 -3.12024 3009 ft 177 kts 236°
2026-05-07 18:27 56.03081 -3.13252 2966 ft 171 kts 236°
2026-05-07 18:28 56.02282 -3.15634 2745 ft 167 kts 236°
2026-05-07 18:28 56.01687 -3.17406 2537 ft 166 kts 236°
2026-05-07 18:28 56.01101 -3.19153 2309 ft 162 kts 235°
2026-05-07 18:28 56.00532 -3.20846 2085 ft 154 kts 234°
2026-05-07 18:29 55.99998 -3.22436 1887 ft 143 kts 234°
2026-05-07 18:29 55.99502 -3.23911 1694 ft 136 kts 234°
2026-05-07 18:29 55.99029 -3.25313 1523 ft 130 kts 234°
2026-05-07 18:29 55.98567 -3.26682 1345 ft 127 kts 235°
2026-05-07 18:30 55.98114 -3.28025 1151 ft 126 kts 235°
2026-05-07 18:30 55.97660 -3.29364 917 ft 126 kts 237°
2026-05-07 18:30 55.97214 -3.30713 803 ft 126 kts 235°
2026-05-07 18:30 55.96751 -3.32058 624 ft 127 kts 234°
2026-05-07 18:31 55.96269 -3.33399 410 ft 127 kts 236°
2026-05-07 18:31 55.95831 -3.34769 284 ft 128 kts 238°
2026-05-07 18:31 55.95388 -3.36105 142 ft 126 kts 236°
2026-05-07 18:31 55.94970 -3.37326 107 ft 95 kts 239°
2026-05-07 18:32 55.94714 -3.38082 109 ft 45 kts 240°
2026-05-07 18:32 55.94591 -3.38444 107 ft 33 kts 238°
2026-05-07 18:32 55.94477 -3.38769 108 ft 21 kts 237°
2026-05-07 18:32 55.94417 -3.38930 109 ft 16 kts 228°
2026-05-07 18:33 55.94312 -3.38896 107 ft 18 kts 148°
2026-05-07 18:33 55.94291 -3.38770 107 ft 11 kts 63°
2026-05-07 18:33 55.94336 -3.38639 107 ft 13 kts 58°
2026-05-07 18:33 55.94389 -3.38484 107 ft 16 kts 58°
2026-05-07 18:34 55.94449 -3.38305 106 ft 18 kts 59°
2026-05-07 18:34 55.94517 -3.38104 106 ft 20 kts 59°
2026-05-07 18:34 55.94593 -3.37881 106 ft 22 kts 59°
2026-05-07 18:34 55.94676 -3.37636 106 ft 24 kts 58°
2026-05-07 18:35 55.94767 -3.37367 107 ft 26 kts 59°
2026-05-07 18:35 55.94858 -3.37099 105 ft 20 kts 59°
2026-05-07 18:35 55.94917 -3.36920 106 ft 14 kts 60°
2026-05-07 18:35 55.94908 -3.36796 107 ft 5 kts 134°
2026-05-07 18:36 55.94895 -3.36755 107 ft 6 kts 97°
2026-05-07 18:36 55.94900 -3.36659 107 ft 7 kts 141°
2026-05-07 18:36 55.94874 -3.36630 107 ft 7 kts 147°
2026-05-07 18:36 55.94855 -3.36606 107 ft 0 kts 145°